Weather in Kazbegi Street

Georgia     42°39′31″N   44°38′29″E
temp.,
°C
wind,
m/s
gust,
m/s
humid.,
%
clouds,
%
prec.,
mm/h
press.,
hPa
HPBL,
m
17 may, mon
mon1701:00+5s8106356 0.0 1015178
04:00+5s786270 0.0 1014132
07:00+6s67715 0.0 1013109
10:00+13ssw55561 0.0 1010901
13:00+16ssw465081 0.0 10092677
16:00+16s364984 0.1 10071911
19:00+10s5881100 1.9 1010509
22:00+6s698415 2.1 1011190
18 may, tue
tue1801:00+5ssw4593100 0.5 1012118
04:00+4s349411 4.0 101196
07:00+5ssw2489100 0.1 1012216
10:00+8ssw137890 1.1 1011752
13:00+8wsw038483 2.1 1012562
16:00+8ssw128184 4.1 1013643
19:00+8n018443 1.2 1014303
22:00+4s44850 1.3 101651
19 may, wed
wed1901:00+3s56860 0.0 101589
04:00+3s68810 0.0 1014128
07:00+6s79733 0.0 1013204
10:00+10ssw67696 0.2 1013659
13:00+12ssw46575 0.1 10121401
16:00+12w255824 1.0 10131610
19:00+8w137840 1.1 1015403
22:00+4ssw229083 1.1 1018117
20 may, thu
thu2001:00+2s227710 0.1 101846
04:00+1ssw43525 0.1 101831
07:00+4ssw34470 0.0 101898
10:00+11s46340 0.0 1015651
13:00+15ssw46300 0.0 10151390
16:00+14ssw35390 0.0 10151340
19:00+11s45610 0.0 1017302
22:00+7s79780 0.0 1020152
21 may, fri
fri2101:00+7s79766 0.0 1020153
04:00+7s78810 0.0 1019145
07:00+10s68710 0.0 1018160
10:00+17s56450 0.0 1016921
13:00+19s55360 0.0 10151945
16:00+19s453324 0.0 10152226
19:00+16s45560 0.0 1017261
22:00+11s67750 0.0 102096